Year,Month,Day,Hour,Minute,Value (Times are PST for temperature in C)
2012,03,22,00,00,4.30
2012,03,22,00,01,4.30
2012,03,22,00,02,4.30
2012,03,22,00,03,4.20
2012,03,22,00,04,4.20
2012,03,22,00,05,4.20
2012,03,22,00,06,4.10
2012,03,22,00,07,4.00
2012,03,22,00,08,4.00
2012,03,22,00,09,3.90
2012,03,22,00,10,3.80
2012,03,22,00,11,3.80
2012,03,22,00,12,3.70
2012,03,22,00,13,3.60
2012,03,22,00,14,3.60
2012,03,22,00,15,3.50
2012,03,22,00,16,3.50
2012,03,22,00,17,3.50
2012,03,22,00,18,3.50
2012,03,22,00,19,3.50
2012,03,22,00,20,3.40
2012,03,22,00,21,3.40
2012,03,22,00,22,3.30
2012,03,22,00,23,3.30
2012,03,22,00,24,3.30
2012,03,22,00,25,3.40
2012,03,22,00,26,3.40
2012,03,22,00,27,3.50
2012,03,22,00,28,3.50
2012,03,22,00,29,3.50
2012,03,22,00,30,3.50
2012,03,22,00,31,3.50
2012,03,22,00,32,3.50
2012,03,22,00,33,3.50
2012,03,22,00,34,3.60
2012,03,22,00,35,3.60
2012,03,22,00,36,3.60
2012,03,22,00,37,3.60
2012,03,22,00,38,3.60
2012,03,22,00,39,3.60
2012,03,22,00,40,3.60
2012,03,22,00,41,3.60
2012,03,22,00,42,3.60
2012,03,22,00,43,3.60
2012,03,22,00,44,3.60
2012,03,22,00,45,3.50
2012,03,22,00,46,3.50
2012,03,22,00,47,3.50
2012,03,22,00,48,3.50
2012,03,22,00,49,3.50
2012,03,22,00,50,3.40
2012,03,22,00,51,3.40
2012,03,22,00,52,3.40
2012,03,22,00,53,3.40
2012,03,22,00,54,3.40
2012,03,22,00,55,3.40
2012,03,22,00,56,3.40
2012,03,22,00,57,3.40
2012,03,22,00,58,3.40
2012,03,22,00,59,3.40
2012,03,22,01,00,3.40
2012,03,22,01,01,3.40
2012,03,22,01,02,3.40
2012,03,22,01,03,3.40
2012,03,22,01,04,3.40
2012,03,22,01,05,3.40
2012,03,22,01,06,3.40
2012,03,22,01,07,3.40
2012,03,22,01,08,3.40
2012,03,22,01,09,3.40
2012,03,22,01,10,3.30
2012,03,22,01,11,3.30
2012,03,22,01,12,3.30
2012,03,22,01,13,3.30
2012,03,22,01,14,3.30
2012,03,22,01,15,3.20
2012,03,22,01,16,3.20
2012,03,22,01,17,3.20
2012,03,22,01,18,3.20
2012,03,22,01,19,3.20
2012,03,22,01,20,3.20
2012,03,22,01,21,3.30
2012,03,22,01,22,3.30
2012,03,22,01,23,3.40
2012,03,22,01,24,3.40
2012,03,22,01,25,3.50
2012,03,22,01,26,3.50
2012,03,22,01,27,3.60
2012,03,22,01,28,3.60
2012,03,22,01,29,3.70
2012,03,22,01,30,3.70
2012,03,22,01,31,3.70
2012,03,22,01,32,3.80
2012,03,22,01,33,3.80
2012,03,22,01,34,3.70
2012,03,22,01,35,3.70
2012,03,22,01,36,3.60
2012,03,22,01,37,3.50
2012,03,22,01,38,3.50
2012,03,22,01,39,3.40
2012,03,22,01,40,3.30
2012,03,22,01,41,3.30
2012,03,22,01,42,3.30
2012,03,22,01,43,3.30
2012,03,22,01,44,3.30
2012,03,22,01,45,3.30
2012,03,22,01,46,3.30
2012,03,22,01,47,3.30
2012,03,22,01,48,3.30
2012,03,22,01,49,3.20
2012,03,22,01,50,3.20
2012,03,22,01,51,3.20
2012,03,22,01,52,3.20
2012,03,22,01,53,3.10
2012,03,22,01,54,3.10
2012,03,22,01,55,3.10
2012,03,22,01,56,3.10
2012,03,22,01,57,3.10
2012,03,22,01,58,3.00
2012,03,22,01,59,2.90
2012,03,22,02,00,2.90
2012,03,22,02,01,2.90
2012,03,22,02,02,2.90
2012,03,22,02,03,2.80
2012,03,22,02,04,2.80
2012,03,22,02,05,2.80
2012,03,22,02,06,2.80
2012,03,22,02,07,2.80
2012,03,22,02,08,2.80
2012,03,22,02,09,2.80
2012,03,22,02,10,2.80
2012,03,22,02,11,2.80
2012,03,22,02,12,2.80
2012,03,22,02,13,2.80
2012,03,22,02,14,2.80
2012,03,22,02,15,2.80
2012,03,22,02,16,2.80
2012,03,22,02,17,2.80
2012,03,22,02,18,2.80
2012,03,22,02,19,2.70
2012,03,22,02,20,2.70
2012,03,22,02,21,2.70
2012,03,22,02,22,2.70
2012,03,22,02,23,2.70
2012,03,22,02,24,2.70
2012,03,22,02,25,2.60
2012,03,22,02,26,2.60
2012,03,22,02,27,2.60
2012,03,22,02,28,2.60
2012,03,22,02,29,2.50
2012,03,22,02,30,2.50
2012,03,22,02,31,2.50
2012,03,22,02,32,2.50
2012,03,22,02,33,2.50
2012,03,22,02,34,2.50
2012,03,22,02,35,2.40
2012,03,22,02,36,2.40
2012,03,22,02,37,2.40
2012,03,22,02,38,2.40
2012,03,22,02,39,2.40
2012,03,22,02,40,2.40
2012,03,22,02,41,2.40
2012,03,22,02,42,2.40
2012,03,22,02,43,2.30
2012,03,22,02,44,2.30
2012,03,22,02,45,2.30
2012,03,22,02,46,2.30
2012,03,22,02,47,2.20
2012,03,22,02,48,2.20
2012,03,22,02,49,2.20
2012,03,22,02,50,2.20
2012,03,22,02,51,2.20
2012,03,22,02,52,2.20
2012,03,22,02,53,2.20
2012,03,22,02,54,2.20
2012,03,22,02,55,2.20
2012,03,22,02,56,2.20
2012,03,22,02,57,2.20
2012,03,22,02,58,2.20
2012,03,22,02,59,2.20
2012,03,22,03,00,2.20
2012,03,22,03,01,2.30
2012,03,22,03,02,2.30
2012,03,22,03,03,2.30
2012,03,22,03,04,2.30
2012,03,22,03,05,2.30
2012,03,22,03,06,2.30
2012,03,22,03,07,2.30
2012,03,22,03,08,2.30
2012,03,22,03,09,2.30
2012,03,22,03,10,2.30
2012,03,22,03,11,2.30
2012,03,22,03,12,2.30
2012,03,22,03,13,2.30
2012,03,22,03,14,2.30
2012,03,22,03,15,2.40
2012,03,22,03,16,2.40
2012,03,22,03,17,2.50
2012,03,22,03,18,2.60
2012,03,22,03,19,2.60
2012,03,22,03,20,2.60
2012,03,22,03,21,2.60
2012,03,22,03,22,2.60
2012,03,22,03,23,2.50
2012,03,22,03,24,2.50
2012,03,22,03,25,2.50
2012,03,22,03,26,2.50
2012,03,22,03,27,2.40
2012,03,22,03,28,2.40
2012,03,22,03,29,2.40
2012,03,22,03,30,2.30
2012,03,22,03,31,2.30
2012,03,22,03,32,2.30
2012,03,22,03,33,2.30
2012,03,22,03,34,2.20
2012,03,22,03,35,2.20
2012,03,22,03,36,2.20
2012,03,22,03,37,2.20
2012,03,22,03,38,2.10
2012,03,22,03,39,2.10
2012,03,22,03,40,1.90
2012,03,22,03,41,1.80
2012,03,22,03,42,1.80
2012,03,22,03,43,1.70
2012,03,22,03,44,1.60
2012,03,22,03,45,1.50
2012,03,22,03,46,1.50
2012,03,22,03,47,1.50
2012,03,22,03,48,1.40
2012,03,22,03,49,1.40
2012,03,22,03,50,1.40
2012,03,22,03,51,1.40
2012,03,22,03,52,1.30
2012,03,22,03,53,1.30
2012,03,22,03,54,1.40
2012,03,22,03,55,1.40
2012,03,22,03,56,1.50
2012,03,22,03,57,1.50
2012,03,22,03,58,1.60
2012,03,22,03,59,1.60
2012,03,22,04,00,1.60
2012,03,22,04,01,1.70
2012,03,22,04,02,1.70
2012,03,22,04,03,1.70
2012,03,22,04,04,1.70
2012,03,22,04,05,1.70
2012,03,22,04,06,1.70
2012,03,22,04,07,1.60
2012,03,22,04,08,1.60
2012,03,22,04,09,1.50
2012,03,22,04,10,1.50
2012,03,22,04,11,1.40
2012,03,22,04,12,1.40
2012,03,22,04,13,1.30
2012,03,22,04,14,1.10
2012,03,22,04,15,1.00
2012,03,22,04,16,0.90
2012,03,22,04,17,0.80
2012,03,22,04,18,0.80
2012,03,22,04,19,0.80
2012,03,22,04,20,0.80
2012,03,22,04,21,0.70
2012,03,22,04,22,0.60
2012,03,22,04,23,0.60
2012,03,22,04,24,0.60
2012,03,22,04,25,0.60
2012,03,22,04,26,0.60
2012,03,22,04,27,0.50
2012,03,22,04,28,0.50
2012,03,22,04,29,0.50
2012,03,22,04,30,0.50
2012,03,22,04,31,0.50
2012,03,22,04,32,0.50
2012,03,22,04,33,0.50
2012,03,22,04,34,0.50
2012,03,22,04,35,0.40
2012,03,22,04,36,0.40
2012,03,22,04,37,0.40
2012,03,22,04,38,0.40
2012,03,22,04,39,0.40
2012,03,22,04,40,0.50
2012,03,22,04,41,0.60
2012,03,22,04,42,0.70
2012,03,22,04,43,0.70
2012,03,22,04,44,0.70
2012,03,22,04,45,0.80
2012,03,22,04,46,0.70
2012,03,22,04,47,0.70
2012,03,22,04,48,0.80
2012,03,22,04,49,0.80
2012,03,22,04,50,0.80
2012,03,22,04,51,0.90
2012,03,22,04,52,0.90
2012,03,22,04,53,0.90
2012,03,22,04,54,0.80
2012,03,22,04,55,0.80
2012,03,22,04,56,0.80
2012,03,22,04,57,0.80
2012,03,22,04,58,0.70
2012,03,22,04,59,0.70
2012,03,22,05,00,0.60
2012,03,22,05,01,0.60
2012,03,22,05,02,0.50
2012,03,22,05,03,0.50
2012,03,22,05,04,0.40
2012,03,22,05,05,0.40
2012,03,22,05,06,0.40
2012,03,22,05,07,0.40
2012,03,22,05,08,0.30
2012,03,22,05,09,0.30
2012,03,22,05,10,0.20
2012,03,22,05,11,0.20
2012,03,22,05,12,0.20
2012,03,22,05,13,0.10
2012,03,22,05,14,0.10
2012,03,22,05,15,0.10
2012,03,22,05,16,0.10
2012,03,22,05,17,0.10
2012,03,22,05,18,0.00
2012,03,22,05,19,-0.10
2012,03,22,05,20,-0.10
2012,03,22,05,21,-0.10
2012,03,22,05,22,-0.10
2012,03,22,05,23,-0.10
2012,03,22,05,24,-0.10
2012,03,22,05,25,-0.10
2012,03,22,05,26,-0.20
2012,03,22,05,27,-0.20
2012,03,22,05,28,-0.20
2012,03,22,05,29,-0.20
2012,03,22,05,30,-0.20
2012,03,22,05,31,-0.20
2012,03,22,05,32,-0.20
2012,03,22,05,33,-0.20
2012,03,22,05,34,-0.30
2012,03,22,05,35,-0.30
2012,03,22,05,36,-0.30
2012,03,22,05,37,-0.30
2012,03,22,05,38,-0.30
2012,03,22,05,39,-0.40
2012,03,22,05,40,-0.40
2012,03,22,05,41,-0.40
2012,03,22,05,42,-0.40
2012,03,22,05,43,-0.40
2012,03,22,05,44,-0.40
2012,03,22,05,45,-0.40
2012,03,22,05,46,-0.40
2012,03,22,05,47,-0.40
2012,03,22,05,48,-0.40
2012,03,22,05,49,-0.40
2012,03,22,05,50,-0.40
2012,03,22,05,51,-0.40
2012,03,22,05,52,-0.40
2012,03,22,05,53,-0.40
2012,03,22,05,54,-0.40
2012,03,22,05,55,-0.50
2012,03,22,05,56,-0.60
2012,03,22,05,57,-0.60
2012,03,22,05,58,-0.60
2012,03,22,05,59,-0.60
2012,03,22,06,00,-0.60
2012,03,22,06,01,-0.60
2012,03,22,06,02,-0.60
2012,03,22,06,03,-0.60
2012,03,22,06,04,-0.60
2012,03,22,06,05,-0.60
2012,03,22,06,06,-0.60
2012,03,22,06,07,-0.60
2012,03,22,06,08,-0.60
2012,03,22,06,09,-0.60
2012,03,22,06,10,-0.60
2012,03,22,06,11,-0.60
2012,03,22,06,12,-0.60
2012,03,22,06,13,-0.60
2012,03,22,06,14,-0.70
2012,03,22,06,15,-0.70
2012,03,22,06,16,-0.60
2012,03,22,06,17,-0.70
2012,03,22,06,18,-0.70
2012,03,22,06,19,-0.70
2012,03,22,06,20,-0.70
2012,03,22,06,21,-0.70
2012,03,22,06,22,-0.70
2012,03,22,06,23,-0.70
2012,03,22,06,24,-0.80
2012,03,22,06,25,-0.80
2012,03,22,06,26,-0.80
2012,03,22,06,27,-0.90
2012,03,22,06,28,-0.90
2012,03,22,06,29,-0.90
2012,03,22,06,30,-0.90
2012,03,22,06,31,-0.90
2012,03,22,06,32,-1.00
2012,03,22,06,33,-1.10
2012,03,22,06,34,-1.10
2012,03,22,06,35,-1.10
2012,03,22,06,36,-1.10
2012,03,22,06,37,-1.10
2012,03,22,06,38,-1.10
2012,03,22,06,39,-1.10
2012,03,22,06,40,-1.10
2012,03,22,06,41,-1.10
2012,03,22,06,42,-1.10
2012,03,22,06,43,-1.10
2012,03,22,06,44,-1.10
2012,03,22,06,45,-1.10
2012,03,22,06,46,-1.10
2012,03,22,06,47,-1.00
2012,03,22,06,48,-1.00
2012,03,22,06,49,-0.90
2012,03,22,06,50,-0.90
2012,03,22,06,51,-0.90
2012,03,22,06,52,-0.90
2012,03,22,06,53,-0.90
2012,03,22,06,54,-0.90
2012,03,22,06,55,-0.90
2012,03,22,06,56,-0.90
2012,03,22,06,57,-0.90
2012,03,22,06,58,-0.90
2012,03,22,06,59,-0.90
2012,03,22,07,00,-0.90
2012,03,22,07,01,-0.90
2012,03,22,07,02,-0.90
2012,03,22,07,03,-0.90
2012,03,22,07,04,-0.90
2012,03,22,07,05,-0.90
2012,03,22,07,06,-0.90
2012,03,22,07,07,-0.90
2012,03,22,07,08,-0.90
2012,03,22,07,09,-0.90
2012,03,22,07,10,-0.90
2012,03,22,07,11,-0.90
2012,03,22,07,12,-0.90
2012,03,22,07,13,-0.90
2012,03,22,07,14,-0.90
2012,03,22,07,15,-0.90
2012,03,22,07,16,-0.90
2012,03,22,07,17,-0.90
2012,03,22,07,18,-0.90
2012,03,22,07,19,-0.90
2012,03,22,07,20,-0.90
2012,03,22,07,21,-1.00
2012,03,22,07,22,-1.10
2012,03,22,07,23,-1.10
2012,03,22,07,24,-1.10
2012,03,22,07,25,-1.10
2012,03,22,07,26,-1.10
2012,03,22,07,27,-1.00
2012,03,22,07,28,-0.90
2012,03,22,07,29,-0.90
2012,03,22,07,30,-0.90
2012,03,22,07,31,-0.90
2012,03,22,07,32,-0.90
2012,03,22,07,33,-0.90
2012,03,22,07,34,-0.90
2012,03,22,07,35,-0.90
2012,03,22,07,36,-0.90
2012,03,22,07,37,-0.90
2012,03,22,07,38,-1.00
2012,03,22,07,39,-1.10
2012,03,22,07,40,-1.10
2012,03,22,07,41,-1.10
2012,03,22,07,42,-1.10
2012,03,22,07,43,-1.10
2012,03,22,07,44,-1.10
2012,03,22,07,45,-1.10
2012,03,22,07,46,-1.00
2012,03,22,07,47,-0.90
2012,03,22,07,48,-0.90
2012,03,22,07,49,-0.90
2012,03,22,07,50,-0.90
2012,03,22,07,51,-0.90
2012,03,22,07,52,-0.90
2012,03,22,07,53,-0.90
2012,03,22,07,54,-0.90
2012,03,22,07,55,-0.80
2012,03,22,07,56,-0.80
2012,03,22,07,57,-0.70
2012,03,22,07,58,-0.70
2012,03,22,07,59,-0.60
2012,03,22,08,00,-0.50
2012,03,22,08,01,-0.40
2012,03,22,08,02,-0.40
2012,03,22,08,03,-0.40
2012,03,22,08,04,-0.30
2012,03,22,08,05,-0.30
2012,03,22,08,06,-0.20
2012,03,22,08,07,-0.20
2012,03,22,08,08,-0.20
2012,03,22,08,09,-0.20
2012,03,22,08,10,-0.20
2012,03,22,08,11,-0.20
2012,03,22,08,12,-0.20
2012,03,22,08,13,-0.20
2012,03,22,08,14,-0.20
2012,03,22,08,15,-0.20
2012,03,22,08,16,-0.20
2012,03,22,08,17,-0.10
2012,03,22,08,18,-0.10
2012,03,22,08,19,-0.10
2012,03,22,08,20,-0.10
2012,03,22,08,21,0.00
2012,03,22,08,22,0.10
2012,03,22,08,23,0.10
2012,03,22,08,24,0.20
2012,03,22,08,25,0.30
2012,03,22,08,26,0.40
2012,03,22,08,27,0.50
2012,03,22,08,28,0.50
2012,03,22,08,29,0.60
2012,03,22,08,30,0.80
2012,03,22,08,31,0.80
2012,03,22,08,32,1.00
2012,03,22,08,33,1.00
2012,03,22,08,34,1.10
2012,03,22,08,35,1.20
2012,03,22,08,36,1.20
2012,03,22,08,37,1.30
2012,03,22,08,38,1.30
2012,03,22,08,39,1.30
2012,03,22,08,40,1.30
2012,03,22,08,41,1.30
2012,03,22,08,42,1.30
2012,03,22,08,43,1.30
2012,03,22,08,44,1.40
2012,03,22,08,45,1.40
2012,03,22,08,46,1.50
2012,03,22,08,47,1.50
2012,03,22,08,48,1.50
2012,03,22,08,49,1.50
2012,03,22,08,50,1.60
2012,03,22,08,51,1.60
2012,03,22,08,52,1.60
2012,03,22,08,53,1.70
2012,03,22,08,54,1.80
2012,03,22,08,55,1.90
2012,03,22,08,56,2.00
2012,03,22,08,57,2.10
2012,03,22,08,58,2.10
2012,03,22,08,59,2.20
2012,03,22,09,00,2.30
2012,03,22,09,01,2.50
2012,03,22,09,02,2.50
2012,03,22,09,03,2.60
2012,03,22,09,04,2.70
2012,03,22,09,05,2.70
2012,03,22,09,06,2.70
2012,03,22,09,07,2.80
2012,03,22,09,08,2.70
2012,03,22,09,09,2.70
2012,03,22,09,10,2.70
2012,03,22,09,11,2.70
2012,03,22,09,12,2.70
2012,03,22,09,13,2.70
2012,03,22,09,14,2.70
2012,03,22,09,15,2.70
2012,03,22,09,16,2.80
2012,03,22,09,17,2.80
2012,03,22,09,18,2.90
2012,03,22,09,19,3.00
2012,03,22,09,20,3.10
2012,03,22,09,21,3.20
2012,03,22,09,22,3.20
2012,03,22,09,23,3.30
2012,03,22,09,24,3.30
2012,03,22,09,25,3.40
2012,03,22,09,26,3.50
2012,03,22,09,27,3.60
2012,03,22,09,28,3.80
2012,03,22,09,29,4.00
2012,03,22,09,30,4.10
2012,03,22,09,31,4.30
2012,03,22,09,32,4.50
2012,03,22,09,33,4.60
2012,03,22,09,34,4.70
2012,03,22,09,35,4.80
2012,03,22,09,36,4.80
2012,03,22,09,37,4.90
2012,03,22,09,38,5.00
2012,03,22,09,39,5.10
2012,03,22,09,40,5.20
2012,03,22,09,41,5.30
2012,03,22,09,42,5.30
2012,03,22,09,43,5.40
2012,03,22,09,44,5.40
2012,03,22,09,45,5.40
2012,03,22,09,46,5.50
2012,03,22,09,47,5.50
2012,03,22,09,48,5.50
2012,03,22,09,49,5.60
2012,03,22,09,50,5.60
2012,03,22,09,51,5.70
2012,03,22,09,52,5.70
2012,03,22,09,53,5.70
2012,03,22,09,54,5.70
2012,03,22,09,55,5.70
2012,03,22,09,56,5.80
2012,03,22,09,57,5.80
2012,03,22,09,58,5.90
2012,03,22,09,59,6.00
2012,03,22,10,00,6.00
2012,03,22,10,01,6.10
2012,03,22,10,02,6.10
2012,03,22,10,03,6.10
2012,03,22,10,04,6.10
2012,03,22,10,05,6.10
2012,03,22,10,06,6.10
2012,03,22,10,07,6.00
2012,03,22,10,08,6.00
2012,03,22,10,09,6.00
2012,03,22,10,10,6.10
2012,03,22,10,11,6.10
2012,03,22,10,12,6.10
2012,03,22,10,13,6.10
2012,03,22,10,14,6.00
2012,03,22,10,15,6.00
2012,03,22,10,16,6.00
2012,03,22,10,17,6.00
2012,03,22,10,18,6.10
2012,03,22,10,19,6.10
2012,03,22,10,20,6.10
2012,03,22,10,21,6.20
2012,03,22,10,22,6.20
2012,03,22,10,23,6.20
2012,03,22,10,24,6.20
2012,03,22,10,25,6.20
2012,03,22,10,26,6.20
2012,03,22,10,27,6.20
2012,03,22,10,28,6.20
2012,03,22,10,29,6.20
2012,03,22,10,30,6.20
2012,03,22,10,31,6.20
2012,03,22,10,32,6.20
2012,03,22,10,33,6.20
2012,03,22,10,34,6.30
2012,03,22,10,35,6.30
2012,03,22,10,36,6.30
2012,03,22,10,37,6.20
2012,03,22,10,38,6.20
2012,03,22,10,39,6.20
2012,03,22,10,40,6.20
2012,03,22,10,41,6.20
2012,03,22,10,42,6.20
2012,03,22,10,43,6.20
2012,03,22,10,44,6.20
2012,03,22,10,45,6.30
2012,03,22,10,46,6.30
2012,03,22,10,47,6.30
2012,03,22,10,48,6.30
2012,03,22,10,49,6.30
2012,03,22,10,50,6.40
2012,03,22,10,51,6.40
2012,03,22,10,52,6.40
2012,03,22,10,53,6.40
2012,03,22,10,54,6.40
2012,03,22,10,55,6.40
2012,03,22,10,56,6.40
2012,03,22,10,57,6.40
2012,03,22,10,58,6.40
2012,03,22,10,59,6.40
2012,03,22,11,00,6.40
2012,03,22,11,01,6.40
2012,03,22,11,02,6.40
2012,03,22,11,03,6.40
2012,03,22,11,04,6.40
2012,03,22,11,05,6.40
2012,03,22,11,06,6.40
2012,03,22,11,07,6.50
2012,03,22,11,08,6.60
2012,03,22,11,09,6.60
2012,03,22,11,10,6.70
2012,03,22,11,11,6.70
2012,03,22,11,12,6.80
2012,03,22,11,13,6.90
2012,03,22,11,14,6.90
2012,03,22,11,15,6.90
2012,03,22,11,16,6.90
2012,03,22,11,17,6.90
2012,03,22,11,18,6.90
2012,03,22,11,19,6.80
2012,03,22,11,20,6.80
2012,03,22,11,21,6.80
2012,03,22,11,22,6.80
2012,03,22,11,23,6.90
2012,03,22,11,24,6.90
2012,03,22,11,25,7.00
2012,03,22,11,26,7.00
2012,03,22,11,27,7.10
2012,03,22,11,28,7.20
2012,03,22,11,29,7.20
2012,03,22,11,30,7.10
2012,03,22,11,31,7.00
2012,03,22,11,32,6.90
2012,03,22,11,33,6.80
2012,03,22,11,34,6.80
2012,03,22,11,35,6.80
2012,03,22,11,36,6.80
2012,03,22,11,37,6.70
2012,03,22,11,38,6.70
2012,03,22,11,39,6.70
2012,03,22,11,40,6.70
2012,03,22,11,41,6.70
2012,03,22,11,42,6.70
2012,03,22,11,43,6.70
2012,03,22,11,44,6.80
2012,03,22,11,45,6.80
2012,03,22,11,46,6.80
2012,03,22,11,47,6.80
2012,03,22,11,48,6.80
2012,03,22,11,49,6.90
2012,03,22,11,50,6.90
2012,03,22,11,51,7.00
2012,03,22,11,52,7.10
2012,03,22,11,53,7.10
2012,03,22,11,54,7.10
2012,03,22,11,55,7.10
2012,03,22,11,56,7.10
2012,03,22,11,57,7.10
2012,03,22,11,58,7.10
2012,03,22,11,59,7.10
2012,03,22,12,00,7.00
2012,03,22,12,01,7.10
2012,03,22,12,02,7.20
2012,03,22,12,03,7.20
2012,03,22,12,04,7.30
2012,03,22,12,05,7.30
2012,03,22,12,06,7.30
2012,03,22,12,07,7.30
2012,03,22,12,08,7.30
2012,03,22,12,09,7.30
2012,03,22,12,10,7.30
2012,03,22,12,11,7.20
2012,03,22,12,12,7.00
2012,03,22,12,13,7.00
2012,03,22,12,14,7.10
2012,03,22,12,15,7.10
2012,03,22,12,16,7.20
2012,03,22,12,17,7.30
2012,03,22,12,18,7.30
2012,03,22,12,19,7.30
2012,03,22,12,20,7.30
2012,03,22,12,21,7.30
2012,03,22,12,22,7.40
2012,03,22,12,23,7.30
2012,03,22,12,24,7.30
2012,03,22,12,25,7.40
2012,03,22,12,26,7.40
2012,03,22,12,27,7.40
2012,03,22,12,28,7.40
2012,03,22,12,29,7.30
2012,03,22,12,30,7.30
2012,03,22,12,31,7.20
2012,03,22,12,32,7.10
2012,03,22,12,33,7.00
2012,03,22,12,34,7.10
2012,03,22,12,35,7.10
2012,03,22,12,36,7.10
2012,03,22,12,37,7.20
2012,03,22,12,38,7.20
2012,03,22,12,39,7.20
2012,03,22,12,40,7.20
2012,03,22,12,41,7.30
2012,03,22,12,42,7.30
2012,03,22,12,43,7.40
2012,03,22,12,44,7.50
2012,03,22,12,45,7.50
2012,03,22,12,46,7.50
2012,03,22,12,47,7.50
2012,03,22,12,48,7.50
2012,03,22,12,49,7.50
2012,03,22,12,50,7.60
2012,03,22,12,51,7.50
2012,03,22,12,52,7.50
2012,03,22,12,53,7.50
2012,03,22,12,54,7.40
2012,03,22,12,55,7.30
2012,03,22,12,56,7.30
2012,03,22,12,57,7.30
2012,03,22,12,58,7.20
2012,03,22,12,59,7.10
2012,03,22,13,00,7.10
2012,03,22,13,01,7.10
2012,03,22,13,02,7.10
2012,03,22,13,03,7.00
2012,03,22,13,04,7.00
2012,03,22,13,05,7.00
2012,03,22,13,06,7.00
2012,03,22,13,07,7.00
2012,03,22,13,08,7.00
2012,03,22,13,09,7.10
2012,03,22,13,10,7.10
2012,03,22,13,11,7.10
2012,03,22,13,12,7.10
2012,03,22,13,13,7.00
2012,03,22,13,14,7.10
2012,03,22,13,15,7.10
2012,03,22,13,16,7.00
2012,03,22,13,17,6.90
2012,03,22,13,18,6.80
2012,03,22,13,19,6.80
2012,03,22,13,20,6.80
2012,03,22,13,21,6.80
2012,03,22,13,22,6.80
2012,03,22,13,23,6.90
2012,03,22,13,24,6.90
2012,03,22,13,25,7.00
2012,03,22,13,26,7.10
2012,03,22,13,27,7.20
2012,03,22,13,28,7.30
2012,03,22,13,29,7.20
2012,03,22,13,30,7.20
2012,03,22,13,31,7.20
2012,03,22,13,32,7.20
2012,03,22,13,33,7.30
2012,03,22,13,34,7.30
2012,03,22,13,35,7.40
2012,03,22,13,36,7.50
2012,03,22,13,37,7.50
2012,03,22,13,38,7.60
2012,03,22,13,39,7.60
2012,03,22,13,40,7.60
2012,03,22,13,41,7.70
2012,03,22,13,42,7.70
2012,03,22,13,43,7.60
2012,03,22,13,44,7.60
2012,03,22,13,45,7.60
2012,03,22,13,46,7.60
2012,03,22,13,47,7.60
2012,03,22,13,48,7.50
2012,03,22,13,49,7.30
2012,03,22,13,50,7.30
2012,03,22,13,51,7.30
2012,03,22,13,52,7.30
2012,03,22,13,53,7.40
2012,03,22,13,54,7.50
2012,03,22,13,55,7.60
2012,03,22,13,56,7.60
2012,03,22,13,57,7.80
2012,03,22,13,58,7.90
2012,03,22,13,59,7.90
2012,03,22,14,00,7.90
2012,03,22,14,01,7.90
2012,03,22,14,02,7.90
2012,03,22,14,03,7.80
2012,03,22,14,04,7.80
2012,03,22,14,05,7.80
2012,03,22,14,06,7.80
2012,03,22,14,07,7.80
2012,03,22,14,08,7.80
2012,03,22,14,09,7.80
2012,03,22,14,10,7.80
2012,03,22,14,11,7.80
2012,03,22,14,12,7.80
2012,03,22,14,13,7.80
2012,03,22,14,14,7.80
2012,03,22,14,15,7.70
2012,03,22,14,16,7.60
2012,03,22,14,17,7.60
2012,03,22,14,18,7.60
2012,03,22,14,19,7.60
2012,03,22,14,20,7.60
2012,03,22,14,21,7.60
2012,03,22,14,22,7.60
2012,03,22,14,23,7.70
2012,03,22,14,24,7.70
2012,03,22,14,25,7.80
2012,03,22,14,26,7.80
2012,03,22,14,27,7.80
2012,03,22,14,28,7.80
2012,03,22,14,29,7.90
2012,03,22,14,30,7.90
2012,03,22,14,31,7.90
2012,03,22,14,32,7.80
2012,03,22,14,33,7.80
2012,03,22,14,34,7.80
2012,03,22,14,35,7.80
2012,03,22,14,36,7.80
2012,03,22,14,37,7.90
2012,03,22,14,38,7.90
2012,03,22,14,39,8.00
2012,03,22,14,40,8.10
2012,03,22,14,41,8.20
2012,03,22,14,42,8.20
2012,03,22,14,43,8.10
2012,03,22,14,44,8.10
2012,03,22,14,45,8.00
2012,03,22,14,46,8.00
2012,03,22,14,47,8.00
2012,03,22,14,48,8.00
2012,03,22,14,49,8.10
2012,03,22,14,50,8.10
2012,03,22,14,51,8.10
2012,03,22,14,52,8.10
2012,03,22,14,53,8.20
2012,03,22,14,54,8.20
2012,03,22,14,55,8.20
2012,03,22,14,56,8.30
2012,03,22,14,57,8.30
2012,03,22,14,58,8.30
2012,03,22,14,59,8.40
2012,03,22,15,00,8.40
2012,03,22,15,01,8.30
2012,03,22,15,02,8.40
2012,03,22,15,03,8.40
2012,03,22,15,04,8.40
2012,03,22,15,05,8.40
2012,03,22,15,06,8.40
2012,03,22,15,07,8.30
2012,03,22,15,08,8.40
2012,03,22,15,09,8.50
2012,03,22,15,10,8.50
2012,03,22,15,11,8.60
2012,03,22,15,12,8.60
2012,03,22,15,13,8.70
2012,03,22,15,14,8.70
2012,03,22,15,15,8.70
2012,03,22,15,16,8.60
2012,03,22,15,17,8.60
2012,03,22,15,18,8.60
2012,03,22,15,19,8.60
2012,03,22,15,20,8.60
2012,03,22,15,21,8.50
2012,03,22,15,22,8.50
2012,03,22,15,23,8.40
2012,03,22,15,24,8.40
2012,03,22,15,25,8.40
2012,03,22,15,26,8.50
2012,03,22,15,27,8.50
2012,03,22,15,28,8.50
2012,03,22,15,29,8.60
2012,03,22,15,30,8.60
2012,03,22,15,31,8.60
2012,03,22,15,32,8.60
2012,03,22,15,33,8.60
2012,03,22,15,34,8.60
2012,03,22,15,35,8.70
2012,03,22,15,36,8.60
2012,03,22,15,37,8.50
2012,03,22,15,38,8.50
2012,03,22,15,39,8.50
2012,03,22,15,40,8.50
2012,03,22,15,41,8.60
2012,03,22,15,42,8.60
2012,03,22,15,43,8.60
2012,03,22,15,44,8.60
2012,03,22,15,45,8.60
2012,03,22,15,46,8.60
2012,03,22,15,47,8.60
2012,03,22,15,48,8.60
2012,03,22,15,49,8.60
2012,03,22,15,50,8.60
2012,03,22,15,51,8.60
2012,03,22,15,52,8.50
2012,03,22,15,53,8.50
2012,03,22,15,54,8.50
2012,03,22,15,55,8.40
2012,03,22,15,56,8.40
2012,03,22,15,57,8.40
2012,03,22,15,58,8.40
2012,03,22,15,59,8.40
2012,03,22,16,00,8.50
2012,03,22,16,01,8.50
2012,03,22,16,02,8.50
2012,03,22,16,03,8.50
2012,03,22,16,04,8.60
2012,03,22,16,05,8.50
2012,03,22,16,06,8.50
2012,03,22,16,07,8.50
2012,03,22,16,08,8.50
2012,03,22,16,09,8.50
2012,03,22,16,10,8.50
2012,03,22,16,11,8.50
2012,03,22,16,12,8.50
2012,03,22,16,13,8.50
2012,03,22,16,14,8.50
2012,03,22,16,15,8.50
2012,03,22,16,16,8.50
2012,03,22,16,17,8.50
2012,03,22,16,18,8.50
2012,03,22,16,19,8.50
2012,03,22,16,20,8.50
2012,03,22,16,21,8.50
2012,03,22,16,22,8.50
2012,03,22,16,23,8.50
2012,03,22,16,24,8.50
2012,03,22,16,25,8.50
2012,03,22,16,26,8.50
2012,03,22,16,27,8.50
2012,03,22,16,28,8.50
2012,03,22,16,29,8.60
2012,03,22,16,30,8.60
2012,03,22,16,31,8.70
2012,03,22,16,32,8.70
2012,03,22,16,33,8.70
2012,03,22,16,34,8.60
2012,03,22,16,35,8.60
2012,03,22,16,36,8.60
2012,03,22,16,37,8.60
2012,03,22,16,38,8.60
2012,03,22,16,39,8.60
2012,03,22,16,40,8.50
2012,03,22,16,41,8.50
2012,03,22,16,42,8.50
2012,03,22,16,43,8.50
2012,03,22,16,44,8.60
2012,03,22,16,45,8.50
2012,03,22,16,46,8.50
2012,03,22,16,47,8.50
2012,03,22,16,48,8.50
2012,03,22,16,49,8.50
2012,03,22,16,50,8.50
2012,03,22,16,51,8.50
2012,03,22,16,52,8.60
2012,03,22,16,53,8.60
2012,03,22,16,54,8.60
2012,03,22,16,55,8.60
2012,03,22,16,56,8.60
2012,03,22,16,57,8.60
2012,03,22,16,58,8.60
2012,03,22,16,59,8.60
2012,03,22,17,00,8.60
2012,03,22,17,01,8.60
2012,03,22,17,02,8.60
2012,03,22,17,03,8.60
2012,03,22,17,04,8.60
2012,03,22,17,05,8.60
2012,03,22,17,06,8.60
2012,03,22,17,07,8.60
2012,03,22,17,08,8.60
2012,03,22,17,09,8.60
2012,03,22,17,10,8.70
2012,03,22,17,11,8.70
2012,03,22,17,12,8.70
2012,03,22,17,13,8.70
2012,03,22,17,14,8.70
2012,03,22,17,15,8.70
2012,03,22,17,16,8.60
2012,03,22,17,17,8.60
2012,03,22,17,18,8.60
2012,03,22,17,19,8.60
2012,03,22,17,20,8.60
2012,03,22,17,21,8.60
2012,03,22,17,22,8.60
2012,03,22,17,23,8.60
2012,03,22,17,24,8.60
2012,03,22,17,25,8.50
2012,03,22,17,26,8.50
2012,03,22,17,27,8.50
2012,03,22,17,28,8.50
2012,03,22,17,29,8.50
2012,03,22,17,30,8.50
2012,03,22,17,31,8.50
2012,03,22,17,32,8.50
2012,03,22,17,33,8.40
2012,03,22,17,34,8.40
2012,03,22,17,35,8.40
2012,03,22,17,36,8.40
2012,03,22,17,37,8.40
2012,03,22,17,38,8.30
2012,03,22,17,39,8.30
2012,03,22,17,40,8.20
2012,03,22,17,41,8.20
2012,03,22,17,42,8.20
2012,03,22,17,43,8.20
2012,03,22,17,44,8.20
2012,03,22,17,45,8.20
2012,03,22,17,46,8.20
2012,03,22,17,47,8.20
2012,03,22,17,48,8.20
2012,03,22,17,49,8.20
2012,03,22,17,50,8.20
2012,03,22,17,51,8.10
2012,03,22,17,52,8.10
2012,03,22,17,53,8.10
2012,03,22,17,54,8.10
2012,03,22,17,55,8.10
2012,03,22,17,56,8.10
2012,03,22,17,57,8.00
2012,03,22,17,58,8.10